DW2182 Weather Reports


time (UTC)temp
F
wind
direction
speed
knots
gust
knots
rain 1hr
in
rain 24hr
in
rain mn
in
humidity
%
barometer
mb
20260831024517 76 90 3.5 7.8 0.00 0.00 0.00 88 1007.5
20260831023518 77 90 2.6 7.8 0.00 0.00 0.00 88 1007.6
20260831022537 77 90 3.5 7.0 0.00 0.00 0.00 87 1007.5
20260831021557 78 90 3.5 7.0 0.00 0.00 0.00 86 1007.5
20260831020618 78 68 3.5 7.8 0.00 0.00 0.00 85 1007.5
20260831015537 78 68 2.6 7.0 0.00 0.00 0.00 85 1007.5
20260831014517 79 68 2.6 7.0 0.00 0.00 0.00 85 1007.3
20260831013517 79 90 2.6 7.0 0.00 0.00 0.00 84 1007.3
20260831012517 79 90 1.7 6.1 0.00 0.00 0.00 83 1007.2
20260831011617 80 90 1.7 5.2 0.00 0.00 0.00 83 1007.0
20260831010537 80 90 1.7 5.2 0.00 0.00 0.00 83 1007.0
20260831005517 81 90 1.7 6.1 0.00 0.00 0.00 82 1007.0
20260831004517 81 68 2.6 7.8 0.00 0.00 0.00 81 1007.0
20260831003517 82 68 2.6 6.1 0.00 0.00 0.00 80 1007.1
20260831002637 82 90 2.6 7.0 0.00 0.00 0.00 79 1007.0
20260831001517 83 90 4.3 11.3 0.00 0.00 0.00 78 1007.2
20260831000517 83 90 3.5 7.8 0.00 0.00 0.00 78 1007.0
20260830235517 84 68 3.5 7.8 0.00 0.00 0.00 78 1006.9
20260830234538 84 68 2.6 4.3 0.00 0.00 0.00 77 1006.9
20260830233517 84 68 2.6 6.1 0.00 0.00 0.00 77 1006.8
20260830232517 85 68 1.7 7.0 0.00 0.00 0.00 77 1006.6
20260830231517 85 68 2.6 7.8 0.00 0.00 0.00 76 1006.7
20260830230557 85 68 1.7 6.1 0.00 0.00 0.00 78 1006.7
20260830225517 85 68 2.6 4.3 0.00 0.00 0.00 76 1006.6
20260830224517 86 68 1.7 4.3 0.00 0.00 0.00 76 1006.5
20260830223517 85 68 1.7 3.5 0.00 0.00 0.00 77 1006.4
20260830222517 85 68 1.7 4.3 0.00 0.00 0.00 76 1006.5
20260830221517 85 68 1.7 6.1 0.00 0.00 0.00 75 1006.6
20260830220517 85 90 1.7 6.1 0.00 0.00 0.00 74 1006.6
20260830215557 86 68 4.3 8.7 0.00 0.00 0.00 73 1006.5
20260830214516 88 90 4.3 10.4 0.00 0.00 0.00 71 1006.7
20260830213517 88 68 3.5 8.7 0.00 0.00 0.00 70 1006.8
20260830212518 87 90 4.3 7.8 0.00 0.00 0.00 70 1006.9
20260830211517 89 90 7.8 13.9 0.00 0.00 0.00 65 1007.0
20260830210516 89 90 6.1 10.4 0.00 0.00 0.00 67 1007.0
20260830205537 90 90 6.1 12.2 0.00 0.00 0.00 67 1006.9
20260830204517 90 90 4.3 12.2 0.00 0.00 0.00 67 1006.9
20260830203557 90 90 3.5 9.6 0.00 0.00 0.00 64 1006.9
20260830202537 90 68 4.3 9.6 0.00 0.00 0.00 66 1006.8
20260830201536 90 68 2.6 7.8 0.00 0.00 0.00 64 1007.0
20260830200516 90 90 5.2 10.4 0.00 0.00 0.00 63 1006.7
20260830195537 90 68 2.6 4.3 0.00 0.00 0.00 64 1006.7
20260830194516 90 90 4.3 8.7 0.00 0.00 0.00 62 1006.8
20260830193537 89 68 3.5 10.4 0.00 0.00 0.00 66 1006.9
20260830192516 89 90 3.5 7.0 0.00 0.00 0.00 67 1006.9
20260830191516 89 68 3.5 7.8 0.00 0.00 0.00 67 1006.8
20260830190516 88 68 2.6 5.2 0.00 0.00 0.00 70 1006.9
20260830185537 88 90 3.5 7.0 0.00 0.00 0.00 70 1007.1
20260830184516 87 68 1.7 4.3 0.00 0.00 0.00 72 1007.0
20260830183517 88 68 1.7 4.3 0.00 0.00 0.00 69 1007.0
20260830182537 88 90 1.7 7.0 0.00 0.00 0.00 70 1007.1
20260830181516 87 68 1.7 5.2 0.00 0.00 0.00 72 1007.3
20260830180517 87 68 2.6 5.2 0.00 0.00 0.00 72 1007.4
20260830175516 86 68 0.9 2.6 0.00 0.00 0.00 72 1007.5
20260830174517 86 68 1.7 3.5 0.00 0.00 0.00 71 1007.4
20260830173517 86 68 1.7 3.5 0.00 0.00 0.00 70 1007.3
20260830172517 86 68 1.7 4.3 0.00 0.00 0.00 72 1007.4
20260830171537 86 68 0.9 3.5 0.00 0.00 0.00 72 1007.7
20260830170516 85 68 0.9 3.5 0.00 0.00 0.00 75 1007.8
20260830165516 84 68 1.7 3.5 0.00 0.00 0.00 75 1007.9
20260830164516 85 68 1.7 3.5 0.00 0.00 0.00 75 1008.2
20260830163517 84 90 0.9 4.3 0.00 0.00 0.00 76 1008.2
20260830162537 83 68 2.6 8.7 0.00 0.01 0.00 79 1008.3
20260830161517 82 90 3.5 7.0 0.00 0.01 0.00 78 1008.3
20260830160516 82 90 2.6 6.1 0.00 0.01 0.00 79 1008.0
20260830155556 81 45 0.9 2.6 0.00 0.01 0.00 80 1007.9
20260830154516 80 90 1.7 2.6 0.00 0.01 0.00 82 1007.9
20260830153517 80 90 0.9 5.2 0.00 0.01 0.00 81 1007.7
20260830152537 80 90 0.9 3.5 0.00 0.01 0.00 83 1007.7
20260830151516 79 90 1.7 3.5 0.00 0.01 0.00 84 1007.8
20260830150537 78 0.0 0.0 0.00 0.01 0.00 85 1007.6
20260830145516 77 0.0 0.0 0.00 0.01 0.00 87 1007.5
20260830144516 77 68 1.7 3.5 0.00 0.01 0.00 87 1007.6
20260830143516 76 68 0.9 2.6 0.00 0.01 0.00 89 1007.5
20260830142516 75 90 1.7 3.5 0.00 0.01 0.00 89 1007.5
20260830141516 75 68 0.9 2.6 0.00 0.01 0.00 90 1007.5
20260830140516 74 0.0 5.2 0.00 0.01 0.00 90 1007.4
20260830135516 74 68 0.9 2.6 0.00 0.01 0.00 91 1007.6
20260830134516 73 68 0.9 2.6 0.00 0.01 0.00 91 1007.5
20260830133516 73 0.0 1.7 0.00 0.01 0.00 93 1007.4
20260830132516 72 0.0 0.0 0.00 0.01 0.00 94 1007.4
20260830131516 71 68 0.9 2.6 0.00 0.01 0.00 94 1007.4
20260830130516 71 0.0 2.6 0.00 0.01 0.00 95 1007.5
20260830125536 70 0.0 1.7 0.00 0.01 0.00 96 1007.6
20260830124557 69 0.0 2.6 0.00 0.01 0.00 96 1007.4
20260830123517 69 0.0 0.0 0.00 0.01 0.00 96 1007.4
20260830122516 69 0.0 0.0 0.00 0.01 0.00 96 1007.6
20260830121516 69 0.0 0.0 0.00 0.01 0.00 97 1007.7
20260830120517 68 0.0 0.0 0.00 0.01 0.00 97 1007.4
20260830115516 68 0.0 0.0 0.00 0.01 0.00 96 1007.4
20260830114536 68 0.0 0.0 0.00 0.01 0.00 96 1007.4
20260830113536 68 0.0 0.0 0.00 0.01 0.00 96 1007.2
20260830112516 68 0.0 0.0 0.00 0.02 0.00 96 1007.3
20260830111516 69 0.0 0.0 0.00 0.02 0.00 96 1007.3
20260830110516 69 0.0 0.0 0.00 0.02 0.00 96 1007.3
20260830105516 69 0.0 0.0 0.00 0.02 0.00 96 1007.4
20260830104517 69 0.0 0.0 0.00 0.02 0.00 96 1007.6
20260830103516 69 0.0 0.0 0.00 0.03 0.00 96 1007.6
20260830102536 69 0.0 0.0 0.00 0.03 0.00 96 1007.5
20260830101516 69 0.0 0.0 0.00 0.04 0.00 96 1007.5
20260830100536 69 0.0 0.0 0.00 0.05 0.00 96 1007.7
20260830095516 69 0.0 0.0 0.00 0.07 0.00 96 1007.9
20260830094516 69 0.0 0.0 0.00 0.11 0.00 96 1007.9
20260830093536 69 0.0 0.0 0.00 0.15 0.00 96 1008.0
20260830092516 69 0.0 0.0 0.00 0.23 0.00 96 1008.0
20260830091516 69 0.0 0.0 0.00 0.25 0.00 96 1008.0
20260830090516 69 0.0 0.0 0.00 0.26 0.00 96 1007.9
20260830085516 69 0.0 0.0 0.00 0.26 0.00 95 1007.9
20260830084536 69 0.0 0.0 0.00 0.27 0.00 95 1007.7
20260830083516 69 0.0 0.0 0.00 0.29 0.00 95 1007.7
20260830082516 69 0.0 0.0 0.00 0.30 0.00 95 1007.8
20260830081536 70 0.0 0.0 0.00 0.31 0.00 95 1007.7
20260830080516 70 0.0 0.0 0.00 0.33 0.00 95 1007.7
20260830075515 70 0.0 1.7 0.00 0.35 0.00 95 1007.8
20260830074516 70 0.0 0.9 0.00 0.36 0.00 95 1008.0
20260830073516 70 0.0 0.0 0.00 0.40 0.00 95 1008.0
20260830072515 70 0.0 1.7 0.00 0.44 0.00 95 1008.1
20260830071516 70 0.0 0.0 0.00 0.44 0.00 95 1008.1
20260830070516 70 0.0 0.9 0.00 0.45 0.00 95 1008.5
20260830065516 70 0.0 4.3 0.00 0.45 0.00 94 1008.5
20260830064516 70 0.0 1.7 0.00 0.48 0.00 94 1008.3
20260830063516 70 0.0 0.0 0.00 0.52 0.00 94 1008.3
20260830062516 70 0.0 2.6 0.00 0.52 0.00 94 1008.4
20260830061516 70 0.0 1.7 0.00 0.52 0.00 94 1008.5
20260830060516 70 0.0 3.5 0.00 0.52 0.00 94 1008.4
20260830055515 70 68 0.9 2.6 0.00 0.52 0.00 94 1008.6
20260830054516 70 68 0.9 2.6 0.00 0.52 0.00 94 1008.7
20260830053515 70 45 0.9 2.6 0.00 0.52 0.00 94 1008.7
20260830052516 70 68 0.9 2.6 0.00 0.52 0.00 93 1008.7
20260830051536 71 0.0 0.0 0.00 0.52 0.00 93 1008.9
20260830050516 71 68 0.9 2.6 0.00 0.52 0.00 93 1008.7
20260830045516 71 68 1.7 2.6 0.00 0.52 0.52 93 1008.9
20260830044516 71 68 0.9 3.5 0.00 0.52 0.52 93 1008.8
20260830043556 71 0.0 1.7 0.00 0.52 0.52 92 1008.8
20260830042536 72 45 0.9 1.7 0.00 0.52 0.52 93 1008.8
20260830041516 72 68 0.9 1.7 0.00 0.52 0.52 92 1008.9
20260830040516 72 0.0 1.7 0.00 0.52 0.52 92 1008.9
20260830035516 72 0.0 0.0 0.00 0.52 0.52 92 1008.8
20260830034516 73 68 0.9 1.7 0.00 0.52 0.52 92 1008.8
20260830033515 73 68 0.9 2.6 0.00 0.52 0.52 92 1008.8
20260830032516 73 68 0.9 2.6 0.00 0.52 0.52 91 1008.6
20260830031516 74 68 0.9 1.7 0.00 0.52 0.52 91 1008.8
20260830030516 74 68 0.9 1.7 0.00 0.52 0.52 91 1009.0
20260830025515 74 45 0.9 1.7 0.00 0.52 0.52 91 1008.8